OpenBCM V1.08-5-g2f4a (Linux)

Packet Radio Mailbox

IZ3LSV

[San Dona' di P. JN]

 Login: GUEST





  
I0OJJ  > KEPS     03.05.25 04:06l 363 Lines 17238 Bytes #44 (0) @ AMSAT
BID : ORB25123.1
Read: GUEST
Subj: 2Line Orbital Elements 25123.AMSAT
Path: IZ3LSV<ED1ZAC<GB7CIP<VK2RZ<IR0AAB<I0OJJ<I0OJJ
Sent: 250503/0025z @:I0OJJ.ITA.EU [Rome] obcm1.08-6-g5b69

>From i0ojj%i0ojj.ita.eu@i0ojj.ampr.org Sat May  3 02:25:08 2025
Received: from i0ojj.ampr.org by i0ojj.ampr.org (JNOS2.0p.7) with SMTP
	id AA17030798 ; Sat, 03 May 2025 02:25:08 +0200
Message-Id: <ORB25123.1@i0ojj.bbs>
>From: i0ojj@i0ojj.ita.eu
X-JNOS-User-Port: Telnet   (i0ojj @ 44.134.109.10)  -> Sending message

From: I0OJJ @ I0OJJ.ITA.EU (Gustavo)
To:   KEPS @ AMSAT
X-Info: This message was generated automatically


QST de W1STR

AMSAT Orbital Elements for Amateur Satellites in TLE Format
>From Orbital Analysis Office
New England Sci-Tech STEM Education Center
Natick, MA May 03, 2025
To all radio amateurs


These element sets describe the orbits of various satellites 
in use by the amateur radio community. For details see:
www.amsat.org/keplerian-elements-formats/

A daily update of element sets is available at:
www.amsat.org/tle/daily-bulletin.txt
or without bulletin text:
www.amsat.org/tle/dailytle.txt


AO-07
1 07530U 74089B   25122.44455878 -.00000044  00000-0  12126-4 0  9995
2 07530 101.9943 126.3015 0012139 193.1984 328.0322 12.53688731309043
UO-11
1 14781U 84021B   25122.43963056  .00003020  00000-0  32445-3 0  9990
2 14781  97.7517  89.5735 0009467 100.4921 259.7363 14.89262576195964
AO-27
1 22825U 93061C   25122.87455135  .00000225  00000-0  10322-3 0  9998
2 22825  98.7392 184.2370 0007717 217.0219 143.0431 14.30785526648597
FO-29
1 24278U 96046B   25122.45456529  .00000046  00000-0  79835-4 0  9996
2 24278  98.5797  21.3586 0350947  81.3947 282.6784 13.53245877417616
NOAA-15
1 25338U 98030A   25122.66697952  .00000347  00000-0  16024-3 0  9993
2 25338  98.5382 148.7059 0011488 108.9623 251.2803 14.26956678402992
GO-32
1 25397U 98043D   25122.47648552  .00000197  00000-0  10549-3 0  9992
2 25397  98.9683 100.8056 0001030  14.9709 345.1499 14.24304471392868
ISS
1 25544U 98067A   25122.80241190  .00013988  00000-0  25885-3 0  9997
2 25544  51.6344 171.8584 0002186  73.9391 286.1838 15.49304274508129
NO-44
1 26931U 01043C   25122.43421320  .00000397  00000-0  17970-3 0  9996
2 26931  67.0513 226.4633 0005700 272.5248  87.5202 14.31714807231649
SO-50
1 27607U 02058C   25122.61810509  .00002167  00000-0  28782-3 0  9995
2 27607  64.5544 317.7055 0051806 342.9247  17.0113 14.81517414203601
CO-55
1 27844U 03031E   25122.52565260  .00000618  00000-0  28820-3 0  9993
2 27844  98.6773 131.2891 0008513 302.1790  57.8563 14.23964108133224
CO-57
1 27848U 03031J   25122.52664416  .00000524  00000-0  25077-3 0  9997
2 27848  98.6802 131.3242 0008687 321.2874  38.7681 14.23303207132954
RS-22
1 27939U 03042A   25122.73847532  .00002285  00000-0  36992-3 0  9999
2 27939  98.3257 291.2844 0012528 126.9431 243.9351 14.72248465155269
NOAA-18
1 28654U 05018A   25122.82509151  .00000319  00000-0  19268-3 0  9994
2 28654  98.8423 202.7255 0013383 233.3669 126.6274 14.13589703 28418
CO-58
1 28895U 05043F   25122.83300676  .00003354  00000-0  55564-3 0  9992
2 28895  98.2447 266.7259 0015659  69.5067 290.7818 14.70877430 41623
CO-65
1 32785U 08021C   25122.42248096  .00009415  00000-0  68474-3 0  9994
2 32785  97.7826  93.3227 0009486 353.7484   6.3621 15.04007991923348
AAUSAT2
1 32788U 08021F   25122.56562679  .00635019  00000-0  26236-2 0  9992
2 32788  97.5960 119.8927 0009425 139.1799 221.0178 15.84259671927391
CO-66
1 32791U 08021J   25122.60941222  .00022063  00000-0  10945-2 0  9995
2 32791  97.7270 101.8373 0001966 337.5263  22.5884 15.17731121924733
RS-30
1 32953U 08025A   25122.81826223  .00000054  00000-0  31908-3 0  9994
2 32953  82.5019 250.6585 0020454 127.5357 232.7586 12.43163464768845
NOAA-19
1 33591U 09005A   25122.89621542  .00000297  00000-0  18226-3 0  9994
2 33591  98.9994 187.3857 0014863 109.6607 250.6170 14.13354106836782
SRMSAT
1 37841U 11058D   25122.91959898  .00000550  00000-0  15508-3 0  9990
2 37841  19.9732  22.4432 0011684  11.1706  73.5818 14.11422727700009
ZACUBE-1
1 39417U 13066B   25122.87394593  .00008131  00000-0  71044-3 0  9992
2 39417  97.7768  80.1064 0044592 175.9096 184.2498 14.96271330619277
Delfi-N3xt
1 39428U 13066N   25122.77159355  .00011975  00000-0  12274-2 0  9997
2 39428  97.8352  40.8625 0087222 124.2767 236.6748 14.87778322613631
GOMX-1
1 39430U 13066Q   25122.57702987  .00003142  00000-0  49469-3 0  9997
2 39430  97.6878 343.5675 0131761 314.5957  44.4556 14.67493249609835
LO-74
1 39440U 13066AA  25122.59535940  .00008676  00000-0  88206-3 0  9992
2 39440  97.8475  67.4322 0060848 306.6365  52.9266 14.89643238615786
AO-73
1 39444U 13066AE  25122.57504445  .00013025  00000-0  98592-3 0  9993
2 39444  97.7780  84.3645 0041920 153.4039 206.9348 15.01729534617884
DTUSAT-2
1 40030U 14033W   25122.60185600  .00013296  00000-0  87382-3 0  9998
2 40030  98.0530  92.6075 0009195 177.2589 182.8689 15.07706892590670
EO-80
1 40032U 14033Y   25122.55774946  .00011881  00000-0  77972-3 0  9993
2 40032  98.0419  92.2693 0010530 121.7708 238.4546 15.07775627590641
LILACSAT-2
1 40908U 15049K   25122.88537372  .00019269  00000-0  51662-3 0  9995
2 40908  97.5091 142.3420 0007391 300.3571  59.6942 15.38001124532436
IO-86
1 40931U 15052B   25038.81889873  .00001817  00000-0  15548-3 0  9993
2 40931   6.0001 108.1159 0012838 187.7041 172.2889 14.78568669506492
Horyu-4
1 41340U 16012D   25122.91993035  .00037725  00000-0  10641-2 0  9991
2 41340  30.9976  24.8847 0007611  15.5038 344.5839 15.35157417506992
Lapan A3
1 41603U 16040E   25122.75696921  .00007044  00000-0  24769-3 0  9998
2 41603  97.1385 128.8554 0012514  51.7333 308.5032 15.29576550492008
CAS-2T
1 41847U 16066G   25122.62466969  .00001266  00000-0  19069-3 0  9996
2 41847  98.4210 197.4143 0345323 293.4182  63.1050 14.43381890445546
CAS-4B
1 42759U 17034B   25122.45970531  .00090643  00000-0  11355-2 0  9997
2 42759  43.0070 188.2804 0018814  20.8014 339.3612 15.58559111436642
CAS-4A
1 42761U 17034D   25122.19983852  .00091487  00000-0  11049-2 0  9998
2 42761  43.0103 187.3380 0020151  23.7228 336.4560 15.59484542436610
TechnoSat
1 42829U 17042E   25122.52746618  .00005932  00000-0  46200-3 0  9994
2 42829  97.3937 293.0564 0015407  53.1372 307.1263 15.01480555425010
AO-91
1 43017U 17073E   25122.61424959  .00012538  00000-0  65190-3 0  9998
2 43017  97.5297 354.3526 0172778 296.2016  62.1534 15.04124153403501
S-Net D
1 43186U 18014G   25122.63515131  .00008716  00000-0  51889-3 0  9999
2 43186  97.5650  25.9333 0009256   8.1447 351.9932 15.11422614396644
S-Net B
1 43187U 18014H   25122.44144633  .00009153  00000-0  54494-3 0  9995
2 43187  97.5659  25.7116 0009820   3.6339 356.4961 15.11402194396618
S-Net A
1 43188U 18014J   25122.63566293  .00008603  00000-0  51211-3 0  9990
2 43188  97.5663  26.0489 0009710   3.4651 356.6644 15.11427956396640
S-Net C
1 43189U 18014K   25122.44375668  .00009226  00000-0  54917-3 0  9992
2 43189  97.5682  25.8668 0010996 355.5359   4.5771 15.11399936395164
Ten-Koh
1 43677U 18084G   25122.45136152  .00004811  00000-0  38783-3 0  9993
2 43677  98.0913 293.1926 0007736  53.9480 306.2458 15.00386113354528
PO-101
1 43678U 18084H   25122.45395977  .00003627  00000-0  31111-3 0  9998
2 43678  98.1032 297.1332 0009592  57.0472 303.1670 14.98151148354677
QO-100
1 43700U 18090A   25122.24716295  .00000135  00000-0  00000-0 0  9999
2 43700   0.0141 261.9874 0001506 168.8426 264.3552  1.00269171 23555
MinXSS-2
1 43758U 18099A   25122.86632668  .00027865  00000-0  11320-2 0  9998
2 43758  97.5034 188.8097 0010445 287.1131  72.8962 15.24486837351220
AO-95
1 43770U 18099N   25122.58611581  .00016297  00000-0  83767-3 0  9994
2 43770  97.4938 181.1055 0009998 352.4371   7.6710 15.16506020350795
RANGE-A
1 43773U 18099R   25122.60222159  .00008255  00000-0  52927-3 0  9998
2 43773  97.4518 172.1077 0010166 329.7057  30.3583 15.08717853350490
MOVE-II
1 43780U 18099Y   25122.44846478  .00217392  00000-0  24225-2 0  9997
2 43780  97.4676 195.5868 0004971 231.5326 128.5486 15.62101612351826
SNUSat 2
1 43782U 18099AA  25122.61153880  .00013778  00000-0  76081-3 0  9996
2 43782  97.4624 178.1875 0010387 285.5359  74.4725 15.13998112350750
SnugLite
1 43784U 18099AC  25122.88832637  .00017335  00000-0  88352-3 0  9998
2 43784  97.4439 177.9467 0001806 287.0118  73.0917 15.16829457350921
ITASat 1
1 43786U 18099AE  25122.57608389  .00011758  00000-0  67845-3 0  9998
2 43786  97.4590 177.7714 0013606 343.4145  16.6639 15.12423047350714
EAGLET 1
1 43790U 18099AJ  25122.61781150  .00007381  00000-0  47369-3 0  9992
2 43790  97.4794 177.8893 0010900 326.1783  33.8749 15.08714373350346
ESEO
1 43792U 18099AL  25122.17562806  .00002448  00000-0  18874-3 0  9998
2 43792  97.4497 171.2339 0010494 300.8490  59.1703 15.02455943350051
CSIM
1 43793U 18099AM  25122.54811322  .00185502  00000-0  20838-2 0  9995
2 43793  97.4844 197.9006 0007160 235.1083 124.9502 15.61982499351682
JO-97
1 43803U 18099AX  25122.60942582  .00019466  00000-0  90724-3 0  9994
2 43803  97.4684 182.0444 0005931 273.8834  86.1723 15.19911307351007
Suomi 100
1 43804U 18099AY  25122.56438084  .00015510  00000-0  77256-3 0  9998
2 43804  97.4753 181.4002 0010858 279.1871  80.8134 15.17610795350935
ISAT
1 43879U 18111D   25122.86889099  .00034758  00000-0  12543-2 0  9996
2 43879  97.5973  36.4680 0007948 348.2313  11.8739 15.28398254345910
UWE-4
1 43880U 18111E   25122.49181627  .00026967  00000-0  10879-2 0  9992
2 43880  97.5918  34.8177 0011811 356.1010   4.0133 15.24714560347822
Sparrow
1 43881U 18111F   25122.55287936  .00035811  00000-0  12492-2 0  9991
2 43881  97.6115  38.8808 0008108  32.2969 327.8766 15.29501424347970
Prox-1
1 44339U 19036A   25121.90548525  .00017997  00000-0  23376-2 0  9997
2 44339  23.9980 315.6827 0007669 353.8318   6.2084 14.79107972312370
